Location: Bismarck
(46.7731°N, 100.8200°W)
Time: 23:11:46
(UTC-06:00)

ISS - Visible Passes

Search period start: 19 December 2014 00:00
Search period end: 29 December 2014 00:00
Orbit: 404 x 415 km, 51.6° (Epoch: 19 December)

Date Brightness Start Highest point End Pass type
(mag) Time Alt. Az. Time Alt. Az. Time Alt. Az.
19 Dec -2.5 18:31:29 10° WNW 18:34:33 35° N 18:35:08 32° NNE visible
20 Dec -2.3 17:40:38 10° WNW 17:43:41 33° N 17:46:32 11° ENE visible
20 Dec -1.7 19:17:22 10° WNW 19:19:18 31° NW 19:19:18 31° NW visible
21 Dec -2.9 18:26:35 10° WNW 18:29:47 45° NNE 18:30:43 34° ENE visible
21 Dec 0.1 20:03:14 10° WNW 20:03:29 12° WNW 20:03:29 12° WNW visible
22 Dec -2.6 17:35:43 10° WNW 17:38:50 37° N 17:41:56 10° E visible
22 Dec -2.6 19:12:19 10° WNW 19:14:58 53° W 19:14:58 53° W visible
23 Dec -3.4 18:21:25 10° WNW 18:24:43 74° NNE 18:26:33 24° ESE visible
23 Dec -0.1 19:58:28 10° W 19:59:20 15° W 19:59:20 15° W visible
24 Dec -3.1 17:30:29 10° WNW 17:33:44 52° NNE 17:36:57 10° E visible
24 Dec -1.8 19:07:12 10° WNW 19:10:13 34° SW 19:11:05 28° S visible
25 Dec -2.7 18:16:05 10° WNW 18:19:19 56° SSW 18:22:32 10° SE visible
26 Dec -0.3 19:02:22 10° W 19:04:28 16° SW 19:06:34 10° S visible
27 Dec -1.0 18:10:45 10° W 18:13:34 26° SW 18:16:22 10° SSE visible
